TimeEDT,TemperatureF,Dew PointF,Humidity,Sea Level PressureIn,VisibilityMPH,Wind Direction,Wind SpeedMPH,Gust SpeedMPH,PrecipitationIn,Events,Conditions,WindDirDegrees,DateUTC
12:56 AM,52.0,50.0,93,30.27,6.0,Calm,Calm,-,N/A,,Clear,0,2013-10-29 04:56:00
1:56 AM,51.1,48.9,92,30.26,6.0,Calm,Calm,-,N/A,,Clear,0,2013-10-29 05:56:00
2:56 AM,50.0,48.0,93,30.25,6.0,Calm,Calm,-,N/A,,Clear,0,2013-10-29 06:56:00
3:56 AM,48.9,48.0,97,30.26,6.0,Calm,Calm,-,N/A,,Clear,0,2013-10-29 07:56:00
4:56 AM,48.9,46.9,93,30.27,6.0,Calm,Calm,-,N/A,,Clear,0,2013-10-29 08:56:00
5:56 AM,48.9,48.0,97,30.28,6.0,Calm,Calm,-,N/A,,Clear,0,2013-10-29 09:56:00
6:56 AM,48.9,48.0,97,30.29,5.0,Calm,Calm,-,N/A,,Clear,0,2013-10-29 10:56:00
7:56 AM,50.0,48.0,93,30.30,6.0,Calm,Calm,-,N/A,,Clear,0,2013-10-29 11:56:00
8:56 AM,55.9,53.1,90,30.32,7.0,Calm,Calm,-,N/A,,Clear,0,2013-10-29 12:56:00
9:56 AM,63.0,55.0,75,30.33,10.0,NNE,4.6,-,N/A,,Clear,30,2013-10-29 13:56:00
10:56 AM,66.0,55.9,70,30.33,10.0,East,4.6,-,N/A,,Clear,100,2013-10-29 14:56:00
12:56 PM,72.0,55.9,57,30.30,10.0,Calm,Calm,-,N/A,,Clear,0,2013-10-29 16:56:00
1:56 PM,73.0,55.0,53,30.27,9.0,SE,5.8,-,N/A,,Mostly Cloudy,130,2013-10-29 17:56:00
2:56 PM,73.0,55.9,55,30.27,8.0,Calm,Calm,-,N/A,,Clear,0,2013-10-29 18:56:00
3:56 PM,72.0,55.0,55,30.26,10.0,East,5.8,-,N/A,,Overcast,100,2013-10-29 19:56:00
4:56 PM,69.1,55.9,63,30.27,10.0,South,6.9,-,N/A,,Overcast,170,2013-10-29 20:56:00
5:56 PM,66.0,55.9,70,30.28,10.0,South,4.6,-,N/A,,Mostly Cloudy,180,2013-10-29 21:56:00
6:56 PM,63.0,57.0,81,30.29,10.0,Calm,Calm,-,N/A,,Partly Cloudy,0,2013-10-29 22:56:00
7:56 PM,60.1,57.0,90,30.30,10.0,Calm,Calm,-,N/A,,Clear,0,2013-10-29 23:56:00
8:56 PM,57.9,55.9,93,30.32,7.0,Calm,Calm,-,N/A,,Scattered Clouds,0,2013-10-30 00:56:00
9:56 PM,57.0,55.9,96,30.32,7.0,Calm,Calm,-,N/A,,Mostly Cloudy,0,2013-10-30 01:56:00
10:56 PM,60.1,54.0,80,30.33,10.0,East,4.6,-,N/A,,Clear,80,2013-10-30 02:56:00
11:56 PM,57.9,51.1,78,30.32,10.0,East,5.8,-,N/A,,Clear,90,2013-10-30 03:56:00